Flag for Sweden Weather past 2 weeks in Helsingborg, Sweden

Now
56 °F

Sunny.


Feels Like: 54 °F
Forecast: 53 / 71 °F
Wind: 9 mph from West

Location: Koebenhavn / Kastrup

Current Time: Jun 30, 2015 at 7:31:50 AM

Latest Report: Jun 30, 2015 at 6:00 AM


Visibility: 25 mi

Pressure: 30.14 "Hg

Humidity: 90%

Dew point: 53 °F

Location of HelsingborgLocation

Historic Weather in Helsingborg — Graph

°F

Helsingborg temperature yesterday

Maximum temperature yesterday: 67 °F (at 8:00 PM)
Minimum temperature yesterday: 56 °F (at 4:00 AM)
Average temperature yesterday: 62 °F

Past Weeks' High & Low Weather Summary

 TemperatureHumidityPressure
High67 °F (Jun 29, 8:00 PM)98% (Jun 29, 4:00 AM)30.18 "Hg (Jun 29, 4:00 AM)
Low47 °F (Jun 15, 5:00 AM)45% (Jun 20, 5:00 PM)29.63 "Hg (Jun 23, 4:00 AM)
Average57 °F76%29.95 "Hg
* Reported Jun 15 5:00 AM — Jun 30 5:00 AM, Helsingborg, Weather by CustomWeather, © 2015

Note: Actual official high and low records may vary slightly from our data, if they occured in-between our weather recording intervals... More about our weather records

Advertising

Helsingborg weather history for previous 24 hours

 ConditionsComfort  
Time TempWeatherWind HumidityBarometerVisibility
5:00 AM
Tue, Jun 30
56 °FSunny.7 mph93%30.14 "Hg17 mi
4:00 AM57 °FClear.8 mph85%30.13 "Hg28 mi
3:00 AM58 °FPassing clouds.8 mph84%30.12 "Hg28 mi
2:00 AM58 °FPassing clouds.8 mph86%30.13 "Hg28 mi
1:00 AM60 °FOvercast.9 mph82%30.12 "Hg31 mi
12:00 AM59 °FOvercast.8 mph85%30.11 "Hg31 mi
10:00 PM
Mon, Jun 29
63 °FClear.9 mph73%30.11 "Hg34 mi
9:00 PM66 °FPassing clouds.14 mph61%30.09 "Hg40 mi
8:00 PM67 °FScattered clouds.6 mph69%30.08 "Hg31 mi
7:00 PM65 °FScattered clouds.8 mph79%30.08 "Hg31 mi
6:00 PM67 °FPartly sunny.8 mph74%30.08 "Hg25 mi
5:00 PM64 °FRain showers. Partly sunny.3 mph86%30.09 "Hg19 mi
4:00 PM66 °FOvercast.8 mph78%30.08 "Hg22 mi
3:00 PM64 °FOvercast.9 mph80%30.08 "Hg22 mi
2:00 PM65 °FPassing clouds.9 mph77%30.08 "Hg22 mi
1:00 PM65 °FSunny.10 mph78%30.09 "Hg19 mi
12:00 PM63 °FOvercast.9 mph86%30.09 "Hg22 mi
11:00 AM61 °FLow clouds.8 mph89%30.09 "Hg18 mi
10:00 AM60 °FLow clouds.10 mph93%30.09 "Hg16 mi
9:00 AM58 °FLow clouds.8 mph95%30.09 "Hg11 mi
8:00 AM58 °FLow clouds.8 mph96%30.09 "Hg13 mi
7:00 AM57 °FLow clouds.8 mph97%30.09 "Hg17 mi
Weather by CustomWeather, © 2015

See weather overviewHow to use our weather pages